Location: Lane
(33.5226°N, 79.8788°W)
Time: 04:00:33
(UTC+00:00)

Altair - Pass Details

Date: 03 October 2022
Orbit: 1501 x 1682 km, 47.2° (Epoch: 01 December)

Event Time Altitude Azimuth Distance (km) Brightness Sun altitude
Rises 12:29:16 0° 280° (W) 4,816 9.5 14.3°
Reaches altitude 10° 12:32:43 10° 289° (WNW) 3,856 9.0 15.0°
Maximum altitude 12:41:44 38° 354° (N) 2,370 8.5 16.8°
Drops below altitude 10° 12:50:57 10° 60° (ENE) 3,943 10.4 18.7°
Sets 12:54:32 0° 68° (ENE) 4,935 10.9 19.4°
